GFSCGP_sfc_dewp_084.txt.gz
Dewpoint
33 33 36 34 37 38 38 37 34 36 41 42 42 42 44 49 51 48 43 41 41 41 48 55 56 58 58 56 49 46 42 42 33 33 33 33 33 33 34 34 34 35 37 36
33 31 33 38 37 35 38 37 37 38 44 39 41 42 46 46 48 48 48 48 44 35 47 54 49 44 50 50 48 44 39 32 31 32 32 31 32 33 34 36 35 34 34 36
33 32 35 38 38 40 39 38 37 37 40 37 41 38 39 42 45 42 36 41 38 34 42 50 43 39 40 45 44 40 35 29 31 31 34 35 36 35 34 35 35 35 35 34
36 37 40 41 39 41 37 42 40 41 40 36 39 34 35 35 35 31 30 31 31 31 41 45 41 34 35 43 39 30 29 28 30 32 33 32 33 32 34 34 36 35 33 34
31 39 38 39 38 43 38 45 42 42 37 35 32 33 33 26 25 29 29 31 31 32 34 39 39 34 29 29 29 29 28 28 29 31 33 33 32 33 35 36 36 37 37 37
38 43 43 40 41 43 43 40 40 37 35 31 35 34 34 25 25 27 29 30 31 30 31 34 31 30 29 29 29 28 27 28 29 31 33 33 33 34 36 37 37 37 36 35
38 38 41 45 38 40 41 38 31 30 30 31 27 31 34 26 24 27 28 29 29 30 32 29 29 30 29 30 30 29 28 29 30 31 32 34 34 34 35 36 36 35 33 33
35 30 36 38 38 36 39 37 31 27 27 28 28 28 29 27 29 30 30 29 30 30 31 29 30 30 30 31 32 32 32 32 33 33 34 35 36 37 36 35 33 33 32 32
34 33 38 38 38 38 37 35 34 21 18 21 23 19 20 28 29 29 28 28 29 30 31 31 32 32 32 33 33 33 32 31 30 30 31 31 32 32 32 31 31 32 32 32
37 32 33 42 36 32 34 37 35 34 19 12 13 16 19 25 27 29 28 27 28 29 29 29 29 29 29 31 31 29 28 28 28 29 29 29 29 30 30 30 29 29 28 26
28 31 28 38 33 32 26 27 28 34 28 20 12 15 20 20 27 28 29 27 28 28 28 27 26 26 26 26 26 26 27 28 28 29 28 28 29 29 29 29 28 27 26 24
26 25 20 23 22 23 29 25 23 25 19 17 17 17 18 19 25 29 29 28 28 28 28 26 25 25 25 26 26 26 26 27 28 29 28 29 30 29 29 29 27 25 24 24
23 25 19 16 18 22 30 27 22 23 22 15 15 15 20 26 28 28 28 28 27 27 27 26 26 25 25 25 25 27 27 28 29 29 29 28 28 29 28 25 24 24 24 24
29 25 19 16 16 17 14 19 22 20 18 16 17 16 16 21 27 28 28 28 27 27 27 26 25 23 24 25 26 26 27 28 28 28 28 28 28 27 25 24 24 24 24 24
23 20 18 15 18 16 13 13 19 17 18 16 17 17 17 18 25 27 27 27 27 26 26 26 24 23 24 25 26 27 27 27 28 28 28 28 28 26 24 25 25 25 25 25
21 16 19 13 21 21 18 17 16 19 17 16 16 16 19 21 25 26 26 26 26 26 27 25 24 23 24 25 26 26 27 28 28 28 28 29 27 26 25 25 26 26 26 26
17 19 20 13 26 24 20 23 20 17 17 16 14 17 20 20 22 24 25 26 26 26 26 24 24 24 26 27 27 27 27 28 28 28 28 28 27 26 26 26 26 26 26 26
17 25 26 23 23 15 19 21 22 20 20 19 20 22 24 23 25 25 26 26 26 27 24 24 25 26 26 27 27 28 28 28 28 28 28 28 27 26 26 26 27 27 27 27
24 26 23 20 20 19 16 19 14 19 16 25 22 24 26 26 24 23 24 26 26 24 25 25 26 27 27 27 28 28 28 28 28 28 28 28 28 26 27 27 27 27 27 25
26 28 23 23 19 17 16 19 22 9 4 13 25 25 25 25 18 20 24 24 25 26 27 27 28 28 28 28 28 28 28 28 28 29 29 29 28 27 27 28 27 27 25 28
18 22 22 24 22 23 24 22 19 2 8 22 27 26 26 22 22 24 25 26 27 27 27 28 27 27 27 28 28 28 28 28 29 30 30 29 28 28 28 28 27 26 27 28
18 20 20 23 22 15 25 20 5 13 24 25 27 27 27 27 27 26 26 27 27 27 29 27 27 27 28 29 29 28 29 30 31 31 29 28 28 28 28 28 27 27 28 27
22 22 20 24 22 24 23 16 19 24 25 28 27 29 29 27 25 26 27 26 27 27 27 27 27 28 29 30 30 29 30 31 31 30 28 29 29 29 30 28 27 28 28 28
27 26 25 23 25 25 26 26 24 29 26 28 29 29 28 26 26 26 26 26 26 26 26 28 29 28 29 30 31 31 32 32 31 29 29 29 29 31 30 29 29 28 29 30
25 25 23 22 21 21 21 24 27 29 30 30 28 27 27 27 26 26 26 26 26 27 28 29 29 29 30 31 32 32 33 32 31 30 30 30 30 29 28 28 29 30 31 33
24 22 21 21 21 16 15 21 28 31 30 30 27 26 27 27 26 26 26 26 27 28 29 29 29 30 30 31 32 33 33 32 30 30 30 30 31 29 28 28 28 32 34 34

GFSCGP_sfc_dewp_087.txt.gz
Dewpoint
34 32 33 33 32 30 38 38 36 37 40 41 42 42 42 48 50 47 46 49 50 52 51 52 59 62 64 64 63 61 57 50 43 36 35 35 36 36 37 38 37 38 39 38
33 31 32 36 35 33 26 33 35 42 42 40 42 41 44 47 48 49 47 43 43 39 45 53 56 60 61 62 60 57 56 48 40 36 35 35 34 36 37 40 38 39 39 39
32 30 35 33 35 34 28 31 37 37 39 39 41 39 40 43 45 47 46 48 49 49 39 48 52 54 57 58 56 54 49 45 41 35 36 37 38 38 38 38 38 38 37 38
36 35 33 36 33 37 32 38 40 41 40 35 38 33 38 39 40 41 43 37 42 39 38 46 51 48 49 54 52 49 47 38 34 36 36 36 38 36 37 38 39 38 37 37
35 38 39 34 34 39 35 44 42 43 40 38 34 35 36 26 30 34 34 33 33 34 35 44 48 44 43 45 45 45 38 33 33 34 38 38 37 37 38 38 38 38 39 38
40 42 43 38 42 43 43 41 41 39 39 34 35 35 35 31 28 28 30 32 33 32 32 39 42 36 36 40 41 37 33 32 34 36 36 38 38 37 38 39 39 40 40 39
37 39 42 43 39 42 42 39 35 33 33 30 28 34 34 29 24 26 29 30 30 31 32 33 35 34 34 37 36 35 34 33 32 34 35 36 38 37 38 39 40 39 37 36
34 32 37 39 38 37 40 39 35 27 30 31 29 30 32 26 29 30 30 30 31 31 32 32 33 35 34 35 33 33 32 32 32 33 34 36 38 39 38 39 37 35 35 35
34 35 37 39 39 39 38 37 36 21 19 23 26 23 22 28 29 29 29 30 31 31 32 32 33 32 33 33 33 34 34 34 34 35 36 36 36 37 36 35 34 35 34 33
37 31 35 42 37 34 38 40 34 36 20 15 14 17 26 25 28 29 28 29 30 31 31 32 32 33 33 33 33 33 32 31 31 31 31 31 31 32 33 33 33 33 31 30
38 34 30 39 35 30 30 30 31 35 30 23 18 19 20 21 27 29 29 29 29 30 30 29 29 30 31 30 30 29 29 29 30 30 30 31 31 31 31 31 31 31 29 28
28 28 26 33 34 22 28 26 33 32 23 19 18 24 18 19 20 30 30 29 29 30 29 27 27 26 26 27 28 28 29 29 31 31 30 30 31 31 31 30 29 27 27 27
26 27 20 19 25 29 33 29 25 25 25 18 19 21 19 26 25 30 30 29 29 29 27 26 26 26 26 26 27 28 29 30 30 30 30 30 30 30 30 28 26 25 25 25
31 27 23 20 20 22 25 24 24 23 23 19 18 19 20 21 27 29 30 30 28 28 27 27 26 25 26 26 27 27 28 29 30 30 30 30 30 29 28 26 26 25 25 25
25 20 21 19 19 19 15 15 21 20 21 18 21 19 20 20 22 29 30 29 28 28 27 27 26 24 25 26 27 28 28 28 29 29 30 30 30 29 27 27 26 26 26 26
24 19 21 17 23 19 18 19 17 19 19 19 18 18 21 22 26 27 28 28 28 28 28 27 25 24 26 26 27 28 28 28 29 29 29 31 30 29 28 27 26 27 28 28
21 21 23 17 24 26 20 23 23 19 19 19 17 23 22 22 24 26 28 29 28 28 28 26 25 25 26 27 27 27 27 28 28 28 29 29 29 29 29 28 28 29 29 28
21 26 27 25 21 15 22 25 24 22 22 22 21 24 25 24 25 25 26 28 28 29 27 25 25 27 28 28 28 28 28 28 28 28 29 29 29 29 29 28 28 29 29 29
23 27 24 23 21 19 18 21 18 21 21 17 24 25 25 26 26 25 25 27 28 28 26 26 27 28 28 28 29 29 28 29 28 29 29 30 30 30 29 29 29 29 29 28
28 28 25 23 23 20 20 20 24 17 8 18 27 26 26 26 21 23 25 25 26 26 27 28 28 28 28 29 29 29 29 29 29 30 30 30 29 29 29 30 30 29 28 27
20 23 23 25 25 24 25 25 24 12 14 24 28 27 28 25 24 25 26 26 27 28 28 29 29 28 28 29 29 29 29 29 30 31 31 31 29 29 30 30 30 29 28 29
20 22 22 24 24 17 27 24 15 18 27 28 29 29 29 29 27 27 27 28 28 29 30 28 28 28 29 29 29 29 30 31 31 32 31 29 30 30 29 31 30 29 29 30
24 23 23 25 24 27 26 24 25 25 27 29 30 31 30 28 27 28 28 27 28 29 28 28 29 29 30 30 30 30 32 32 32 31 31 30 30 30 32 30 29 29 29 30
27 27 26 25 26 25 26 27 25 28 29 31 32 31 30 28 28 27 27 27 28 28 28 29 30 29 30 31 32 32 32 33 32 31 31 31 30 33 31 30 30 30 30 31
26 27 25 24 24 24 24 24 26 29 31 31 30 30 30 28 28 27 27 27 27 28 30 30 30 30 30 32 32 33 33 33 32 31 30 30 32 32 30 30 29 31 32 33
26 24 23 23 24 21 21 21 28 29 31 31 28 28 28 29 28 28 27 28 28 30 30 30 30 31 31 32 33 33 34 32 31 30 31 31 32 31 30 29 28 31 33 33

GFSCGP_sfc_dewp_090.txt.gz
Dewpoint
32 28 26 24 24 24 20 15 17 25 30 38 40 40 41 44 43 45 49 50 50 51 53 54 57 61 61 61 65 66 65 64 59 55 42 38 38 37 37 37 35 36 36 37
30 29 30 29 26 27 25 21 23 29 30 37 35 40 42 43 43 43 44 46 48 48 51 52 55 56 60 63 64 65 64 62 57 53 44 41 38 36 37 39 38 39 39 38
35 33 34 31 29 28 28 26 22 28 38 40 34 33 39 44 44 46 44 44 43 46 48 50 53 56 60 61 63 64 63 59 56 48 42 39 39 39 39 39 39 39 38 39
37 36 34 33 30 30 27 27 25 32 38 34 39 23 33 39 42 43 45 45 46 45 47 45 52 55 59 61 63 61 61 57 51 46 41 39 37 35 35 36 38 38 37 36
36 36 36 33 30 30 29 29 26 33 37 35 36 29 30 38 40 41 43 45 46 48 48 44 47 50 53 58 60 60 57 54 48 42 41 40 38 37 38 37 38 38 39 38
37 40 40 38 39 39 34 35 37 39 40 34 28 31 26 33 35 37 37 39 40 38 36 40 46 49 50 54 55 56 56 49 43 41 40 41 40 37 36 38 37 39 40 40
36 36 37 40 37 41 39 33 32 33 33 31 32 32 29 35 31 30 29 33 35 34 34 37 43 45 47 51 53 54 48 40 38 39 37 38 40 37 36 38 38 40 39 40
36 32 35 38 37 35 31 32 33 32 25 26 30 28 26 31 30 30 30 32 33 33 34 35 40 44 46 50 50 44 39 36 35 35 35 36 39 38 38 39 39 39 38 38
34 35 34 37 39 38 37 35 42 36 23 26 27 27 27 25 28 29 30 31 33 33 34 34 37 41 42 43 38 35 35 35 33 33 34 34 36 40 40 39 37 37 36 35
35 35 32 34 37 33 36 39 35 37 26 21 20 21 26 26 26 29 29 31 32 33 33 34 35 36 35 35 33 33 33 33 34 34 35 35 34 34 35 34 34 35 34 34
35 33 31 36 32 28 33 33 35 34 30 27 20 18 19 21 23 28 29 30 32 32 32 33 34 34 33 33 33 32 32 32 32 32 32 32 31 31 31 32 33 33 33 32
31 26 28 33 33 32 21 25 34 33 28 23 24 24 18 20 21 30 29 31 32 32 32 31 32 31 31 31 32 31 31 31 32 32 31 31 32 32 31 31 30 30 30 30
26 25 21 22 27 28 29 31 26 24 29 28 24 24 19 25 24 30 30 30 31 30 30 30 29 29 29 28 28 29 30 31 30 30 30 31 31 31 31 30 29 28 27 27
33 23 20 18 19 20 21 28 26 26 25 24 23 25 21 21 27 31 31 30 30 30 29 29 29 28 28 27 27 28 28 29 31 30 30 31 30 31 31 30 28 27 26 25
26 20 19 19 19 18 17 15 24 22 24 23 21 19 21 21 21 30 31 30 29 29 29 29 29 27 27 27 27 28 28 28 28 28 30 30 30 31 29 29 28 27 26 27
24 20 19 15 19 23 19 19 19 15 17 19 20 20 20 22 25 29 30 30 29 29 29 29 28 27 26 26 27 29 28 28 27 28 28 31 31 30 31 30 29 29 30 30
23 22 22 14 19 22 20 21 23 20 18 18 16 21 22 22 25 28 30 30 30 30 29 28 27 27 27 27 27 26 26 27 27 27 29 30 30 30 31 30 30 31 31 30
24 23 26 21 21 14 20 22 21 21 20 19 21 22 26 25 25 25 28 30 30 30 30 28 27 27 28 28 27 27 27 27 27 27 28 30 30 31 31 31 31 31 30 31
26 25 25 24 20 18 15 18 17 19 14 19 23 25 25 26 26 26 26 28 30 31 29 27 27 29 29 28 28 28 27 28 28 28 29 30 31 31 31 32 32 31 31 31
28 28 26 24 28 21 18 18 21 14 10 22 26 26 25 26 18 24 27 28 29 28 28 28 28 26 27 28 28 29 29 29 28 30 31 31 31 31 32 32 33 33 32 31
22 25 25 24 26 21 24 25 22 9 12 21 27 26 27 25 27 28 27 28 28 28 29 29 28 26 28 29 30 29 30 29 31 32 32 32 32 32 32 33 33 32 31 30
24 26 25 25 26 27 26 23 14 18 26 26 28 29 30 30 29 28 28 29 29 29 29 27 27 28 29 30 30 29 30 32 33 33 33 32 32 32 31 33 33 31 30 29
25 24 25 26 23 27 27 27 24 23 26 28 29 31 31 29 28 29 29 28 28 27 28 28 29 30 30 31 31 30 32 33 33 33 32 32 32 31 32 32 31 30 29 26
28 27 28 28 26 25 26 26 28 27 27 29 31 32 32 29 29 28 28 27 27 28 28 29 29 28 29 32 32 33 33 34 32 31 31 31 31 32 31 31 30 27 27 28
28 27 26 26 26 27 26 24 24 27 30 30 31 32 31 30 29 28 27 27 27 28 30 30 29 30 30 32 33 34 34 34 32 31 30 30 31 30 29 27 25 28 29 31
28 26 25 23 24 24 25 25 25 27 29 31 30 31 31 30 29 28 27 28 28 29 31 31 31 31 32 32 33 34 34 33 32 30 29 29 28 26 26 25 26 29 31 33

GFSCGP_sfc_dewp_096.txt.gz
Dewpoint
36 31 30 31 33 31 29 26 25 22 21 20 18 18 23 30 36 36 40 43 45 50 54 60 60 62 62 59 59 66 65 62 59 56 56 55 49 45 42 43 38 36 38 38
32 32 34 32 33 33 31 28 25 22 21 18 17 16 19 32 37 38 45 46 49 48 52 57 58 55 56 62 63 66 64 60 59 57 58 57 43 42 43 44 40 39 38 39
32 33 34 34 33 30 30 27 26 22 21 21 19 17 18 24 33 43 45 45 47 48 46 53 56 57 61 61 59 65 64 61 60 59 56 49 44 45 44 42 41 39 38 39
34 35 34 34 32 32 31 31 27 28 27 20 19 17 20 27 29 38 43 46 50 48 49 52 57 59 62 61 58 66 65 63 62 60 53 47 44 42 43 43 42 40 38 39
32 34 34 35 33 35 33 37 34 33 26 23 23 26 27 33 28 39 42 44 46 49 51 52 55 56 59 58 61 65 64 63 62 60 54 48 44 44 43 43 41 40 39 38
32 37 36 35 35 36 35 35 36 36 33 26 24 33 35 32 30 39 43 44 46 46 50 50 52 54 55 60 62 65 64 63 62 59 53 50 49 41 40 40 40 41 42 41
29 33 36 36 37 37 37 37 30 29 30 25 36 34 34 38 40 36 42 48 46 46 49 48 49 54 57 60 63 62 63 61 60 55 51 50 44 40 40 40 41 40 41 42
26 29 32 34 34 36 36 37 32 25 30 33 38 35 39 46 42 38 41 44 49 47 43 45 51 53 55 56 59 60 59 56 56 49 49 48 43 42 40 41 41 42 42 43
28 31 32 34 34 37 34 37 39 34 35 34 35 37 41 42 34 36 40 42 43 41 41 44 48 49 52 55 56 57 52 50 46 43 43 40 39 41 42 40 41 41 40 39
29 28 31 32 36 37 37 41 36 36 30 28 28 17 20 27 30 32 33 34 36 36 38 42 46 50 53 55 53 48 43 39 37 37 37 39 42 42 40 38 36 36 35 35
25 26 25 29 32 30 33 30 37 39 38 34 22 19 21 27 29 31 32 33 34 35 37 40 42 42 43 41 38 37 36 36 36 40 40 37 38 36 34 34 35 35 33 33
26 25 23 24 29 32 31 28 31 35 32 36 35 22 23 28 30 32 33 40 38 37 38 38 37 37 37 36 35 34 35 35 38 37 33 33 32 32 31 31 31 31 31 31
29 23 20 20 27 25 21 20 30 31 37 32 34 34 26 29 30 32 32 33 35 36 36 36 35 34 33 32 32 33 33 33 32 32 33 32 31 31 30 29 28 27 26 26
38 28 23 19 19 21 18 20 19 30 34 29 29 23 20 25 31 32 32 32 33 35 35 35 33 32 31 31 31 31 31 31 32 32 32 32 31 31 30 28 27 26 25 25
28 24 22 21 21 18 18 19 19 16 16 16 17 20 21 23 26 31 31 31 31 32 32 33 31 30 29 29 29 30 30 30 30 31 31 30 30 29 28 28 28 27 27 26
27 24 23 21 22 18 18 22 23 22 20 18 20 22 24 26 29 29 30 31 30 31 31 31 30 29 28 28 29 29 28 28 28 29 31 30 29 30 30 30 29 29 30 30
26 27 25 23 24 22 21 22 22 23 17 16 21 25 26 27 30 31 30 30 31 31 31 30 29 29 28 28 28 28 27 26 26 27 28 28 28 29 29 30 29 30 31 30
26 27 27 26 25 22 23 23 23 22 20 26 20 28 29 28 27 28 30 31 31 32 31 30 30 30 29 29 28 27 27 25 25 25 26 27 28 29 30 30 31 31 31 31
27 28 28 28 24 23 20 21 21 21 22 29 28 27 27 29 28 27 30 32 33 32 31 30 30 30 30 28 28 27 26 26 25 26 26 28 29 29 31 32 32 32 32 32
28 28 27 27 27 26 24 23 22 22 18 28 28 27 26 27 28 27 29 31 31 30 31 31 30 29 28 27 27 28 27 26 26 29 29 30 30 31 31 32 32 33 33 32
27 28 26 28 30 28 26 27 30 20 22 28 29 28 29 31 31 29 30 30 31 31 30 30 29 28 27 28 27 27 27 30 30 30 31 31 31 31 31 32 32 32 32 32
26 28 29 28 28 26 28 28 25 26 28 29 29 30 33 31 31 31 31 32 32 30 30 29 28 28 28 27 25 26 30 30 31 32 32 31 31 31 30 30 31 31 31 30
25 28 29 28 29 29 30 30 32 31 29 30 30 31 34 32 31 32 32 31 30 29 29 30 29 28 28 29 28 29 31 32 32 31 31 30 30 30 30 30 30 30 29 26
26 31 31 30 30 30 27 28 29 31 31 31 30 32 34 32 32 31 31 30 29 29 29 29 28 28 29 29 30 32 33 33 32 30 30 30 29 30 29 28 27 25 26 26
25 30 29 28 29 30 29 28 29 32 33 31 31 33 33 33 32 31 30 29 29 29 29 28 29 29 30 31 32 34 35 34 32 30 29 29 29 29 26 24 25 26 27 31
24 23 22 23 27 27 29 31 31 30 31 31 31 32 33 33 32 31 30 29 29 29 30 31 30 31 31 32 33 34 34 32 30 29 29 29 29 27 25 26 26 31 32 33

GFSCGP_sfc_dewp_099.txt.gz
Dewpoint
37 34 31 32 32 32 32 31 30 30 29 23 21 21 21 23 24 30 34 42 46 47 52 59 60 61 61 63 64 64 63 60 58 57 56 56 58 54 44 41 38 37 38 38
34 32 34 35 36 34 32 31 29 29 28 23 20 20 21 18 26 26 32 36 43 48 58 60 61 61 61 61 65 64 62 60 58 58 58 59 57 46 42 42 38 39 37 38
32 33 36 35 35 33 32 31 31 30 30 28 23 21 21 20 20 28 39 45 49 52 56 59 60 61 61 63 65 64 62 60 59 59 59 58 52 43 43 41 40 39 38 38
34 36 36 36 35 35 33 35 34 32 31 26 22 17 19 20 20 26 39 44 51 53 53 56 59 59 59 62 64 63 61 60 60 59 58 54 48 41 42 41 41 38 38 38
28 35 36 37 35 36 34 37 35 35 34 31 29 23 20 25 29 33 37 44 51 52 52 53 57 57 61 63 65 63 62 61 60 57 57 54 50 49 52 47 39 39 39 39
26 36 38 36 37 37 40 38 37 36 34 27 27 27 25 34 38 38 40 44 48 50 52 55 58 62 61 62 65 65 63 62 61 59 54 53 49 48 50 42 40 40 40 39
28 34 36 37 36 38 39 37 29 25 28 26 35 31 31 40 43 43 43 44 48 49 49 52 56 58 60 63 63 64 63 62 61 59 54 53 49 48 45 40 40 41 41 41
25 27 32 33 34 34 36 37 32 23 27 31 35 31 36 43 45 44 45 48 49 51 50 51 54 57 59 61 63 63 62 61 60 56 55 54 46 45 42 40 42 41 42 43
26 30 32 30 35 36 34 37 39 33 34 32 33 37 43 44 44 45 46 45 45 46 50 51 53 55 56 57 59 58 59 56 51 47 49 42 40 41 42 41 42 42 40 39
26 26 28 32 35 37 37 41 37 36 30 22 23 21 25 39 41 41 40 47 46 46 46 49 52 54 55 53 49 50 48 42 42 41 41 44 43 40 38 38 35 35 36 35
25 23 21 27 29 29 32 31 38 39 36 32 25 21 29 31 32 32 32 36 42 39 41 42 42 40 38 39 38 38 37 36 42 45 41 40 36 37 35 35 35 34 34 33
28 24 21 22 26 29 25 25 34 34 34 36 33 26 28 31 32 35 35 36 37 38 38 38 38 37 35 35 35 35 37 38 37 35 34 34 33 33 32 32 32 32 31 30
26 23 22 20 21 22 19 20 22 35 37 32 27 28 27 31 31 32 33 36 40 37 36 35 34 33 33 33 33 34 34 34 33 32 32 32 31 30 29 28 27 27 28 28
36 27 23 21 22 23 20 19 18 28 21 23 29 21 21 29 31 32 32 34 35 34 34 33 32 31 31 32 31 31 31 32 32 32 32 31 30 29 28 27 27 26 25 25
24 22 23 24 24 23 18 22 24 19 16 14 17 20 22 25 31 31 31 32 33 33 32 31 30 30 30 29 30 30 29 30 31 31 30 29 29 28 28 28 28 28 28 27
24 23 24 23 25 23 19 23 24 22 18 19 23 23 25 30 30 30 30 30 31 31 31 30 29 28 28 28 28 28 28 29 30 30 29 30 30 30 30 30 29 29 29 29
20 25 25 22 24 25 20 21 22 17 21 17 19 25 26 28 28 29 31 30 30 31 30 29 28 28 28 28 28 27 26 27 29 29 29 28 28 29 30 30 30 30 30 31
19 24 26 23 25 19 21 23 21 22 27 28 27 29 29 28 28 29 31 31 31 31 29 29 29 28 29 28 28 27 26 25 26 26 27 28 29 29 30 31 31 31 31 31
24 25 25 23 23 23 20 21 20 20 24 28 27 28 28 28 28 26 31 32 32 31 30 29 30 29 28 27 27 27 26 25 26 27 28 29 29 31 31 32 32 32 32 32
26 27 26 24 23 23 22 22 22 19 17 28 27 26 27 29 28 27 30 30 30 30 30 29 28 27 27 27 28 27 27 29 29 29 30 30 31 31 31 31 31 32 32 32
25 26 24 24 23 28 25 25 27 15 20 27 28 28 30 28 31 29 31 30 31 30 29 29 27 27 27 27 28 28 30 29 30 31 31 31 31 31 31 31 31 31 31 31
26 25 25 27 23 23 28 26 23 25 27 27 29 32 30 30 31 31 31 31 30 30 29 28 28 27 27 27 27 30 29 31 32 32 32 31 30 30 30 30 30 30 30 27
23 25 26 28 29 30 28 28 30 30 27 28 30 33 31 31 31 32 31 30 29 29 29 29 28 28 29 29 31 31 32 32 32 31 30 30 30 29 29 29 27 27 25 26
24 29 29 27 27 27 26 27 28 29 28 30 31 33 33 31 32 31 31 30 29 29 29 29 28 29 29 31 33 33 34 33 32 30 29 29 29 29 27 25 25 25 25 29
25 24 27 27 28 29 28 27 30 30 31 30 31 33 33 32 32 31 30 29 29 29 28 29 30 30 30 33 34 34 33 31 30 29 29 29 29 27 26 25 26 27 29 32
24 22 24 25 29 25 27 29 30 30 30 31 31 31 34 33 32 31 30 30 29 29 30 31 31 31 32 33 33 33 32 31 30 29 29 30 28 26 26 26 26 31 32 31

GFSCGP_sfc_dewp_102.txt.gz
Dewpoint
37 34 31 32 33 32 32 32 31 32 33 30 28 26 23 24 22 22 25 29 41 48 54 58 60 60 61 61 63 62 61 60 58 57 55 54 54 56 49 40 37 37 39 39
33 31 33 36 37 36 34 32 31 31 31 30 29 26 24 22 22 21 22 31 37 46 52 59 60 60 60 61 63 62 61 59 58 57 58 58 57 57 46 43 38 39 38 40
32 33 36 36 36 35 34 33 33 32 34 30 27 26 25 22 22 21 23 29 35 42 57 59 59 59 60 62 63 63 60 59 59 59 59 58 55 53 51 44 42 39 37 40
31 36 36 37 36 36 33 35 35 35 35 29 26 24 25 22 21 23 34 38 47 56 59 59 59 59 60 62 64 62 60 60 60 60 60 58 57 53 52 47 43 39 37 38
22 29 34 36 34 36 34 38 38 36 34 34 32 28 24 27 28 37 38 41 44 55 59 59 59 60 61 63 64 62 61 61 60 60 59 58 56 52 51 51 49 43 38 38
25 30 37 35 36 36 37 39 38 36 34 28 33 28 24 36 39 41 43 44 44 51 55 59 60 60 61 63 63 62 61 61 60 60 58 57 54 52 51 50 49 45 40 40
26 27 35 37 33 36 38 37 30 24 28 28 35 32 28 39 42 44 45 46 49 50 53 57 58 59 61 63 63 62 61 61 60 59 57 56 54 51 51 51 49 44 40 40
24 23 31 31 31 32 37 38 32 22 27 29 36 31 36 39 43 46 45 48 50 52 54 56 59 59 60 63 63 63 62 61 61 58 57 56 55 54 52 50 47 43 41 41
24 26 31 29 30 35 34 36 39 33 34 29 33 35 38 42 43 46 47 47 48 51 53 54 56 58 61 62 62 61 61 61 59 56 56 54 52 48 47 46 46 44 42 39
25 24 26 27 31 36 37 40 35 36 28 20 27 25 29 40 42 45 47 48 48 49 51 53 54 54 54 55 56 58 58 57 54 50 44 43 43 42 42 41 40 38 36 35
26 22 21 25 24 27 26 28 38 36 36 30 23 23 30 32 35 35 44 49 47 44 45 41 39 42 42 42 40 40 45 42 43 43 39 38 37 36 35 35 35 35 35 34
27 24 21 21 24 26 21 22 34 31 31 34 31 27 30 32 33 35 36 37 39 39 39 37 36 35 35 36 39 39 40 39 38 36 35 34 34 33 33 32 32 32 31 30
25 22 20 17 18 23 21 21 26 36 35 30 26 27 31 31 32 34 36 38 37 36 35 35 35 33 33 34 35 34 33 33 32 32 31 31 31 30 28 28 28 29 29 29
34 26 21 19 19 23 22 23 22 29 17 17 25 20 22 31 32 33 34 35 34 34 33 33 32 31 31 31 31 31 31 32 32 31 30 29 28 28 27 27 26 26 25 25
23 20 23 24 24 24 24 24 22 19 18 13 18 20 23 29 31 32 34 34 33 32 32 31 31 30 29 29 29 30 31 31 30 29 29 29 28 28 29 29 29 29 28 28
18 18 24 23 24 25 23 22 22 18 14 18 23 24 29 30 31 31 32 32 31 30 29 29 29 29 28 28 28 29 30 29 29 29 29 30 30 30 30 30 29 29 30 30
14 23 24 21 23 25 20 20 21 17 24 20 20 25 28 28 29 30 30 31 30 30 28 28 28 28 28 27 27 28 29 30 29 29 29 29 29 30 30 30 30 30 30 30
15 22 25 23 24 18 21 22 21 25 27 27 27 28 28 28 29 29 31 31 30 29 28 28 28 28 29 28 27 26 27 28 27 27 27 29 29 30 31 31 31 32 31 31
17 21 23 22 23 24 21 20 18 19 21 28 27 28 27 28 28 28 30 32 31 29 29 29 29 28 27 27 26 26 26 27 28 28 29 29 30 31 31 31 31 32 32 32
24 25 25 23 22 21 23 21 21 19 14 25 27 27 27 28 26 26 29 31 30 30 29 28 27 27 26 27 27 28 29 29 29 30 30 30 31 31 31 31 31 31 32 31
24 25 23 24 22 25 29 24 25 10 15 26 27 26 28 28 29 29 30 30 30 29 28 28 27 27 27 28 29 30 29 29 30 31 31 31 31 30 30 30 30 31 31 30
26 25 24 25 23 23 27 25 20 24 27 27 29 31 29 30 31 31 30 30 30 30 29 28 27 27 27 28 30 29 30 31 32 31 31 31 30 30 30 29 29 29 27 25
24 26 25 28 28 30 28 26 29 29 27 27 29 32 31 31 31 31 30 29 29 28 29 28 28 28 30 31 31 31 32 32 31 30 29 29 30 28 28 26 25 25 25 26
23 27 29 28 27 29 27 27 29 29 27 29 31 33 32 31 32 31 30 29 29 29 28 28 29 29 30 32 33 33 33 31 29 28 29 29 29 28 26 25 25 25 28 29
21 23 23 26 26 28 29 27 28 30 30 29 31 34 32 32 32 31 30 29 29 29 29 29 29 30 32 34 33 32 31 30 29 29 29 29 28 25 25 26 26 29 29 31
25 22 20 17 25 28 25 29 30 30 31 31 31 33 33 33 32 31 30 30 29 29 30 31 31 33 33 33 32 32 32 30 29 29 29 29 24 25 25 26 26 30 31 31

GFSCGP_sfc_dewp_108.txt.gz
Dewpoint
35 33 30 31 33 33 32 33 32 33 34 33 32 32 32 32 31 27 25 24 23 26 54 59 61 62 62 61 61 61 62 64 63 59 57 55 54 51 47 44 46 47 40 39
32 29 31 35 37 36 35 33 33 34 35 33 34 34 34 33 31 27 26 24 22 25 28 53 60 61 60 60 61 61 63 65 65 64 61 56 55 55 53 52 41 39 39 39
31 28 35 33 35 34 33 33 33 33 37 36 36 32 31 31 27 25 33 39 41 41 43 41 58 60 60 59 61 62 63 64 65 62 59 58 57 56 53 49 41 42 39 40
28 29 27 32 34 34 31 34 36 37 35 32 37 28 32 33 30 39 42 44 45 45 46 47 56 59 60 60 61 62 62 63 62 59 58 56 56 52 56 54 52 52 49 40
16 22 26 33 30 34 31 35 38 37 35 30 34 31 28 36 36 39 41 45 46 48 47 51 57 59 60 60 61 62 63 62 59 59 58 56 56 56 56 53 52 52 51 46
26 28 31 34 34 34 36 38 34 33 31 26 35 31 28 36 39 40 43 45 48 51 52 55 57 59 59 61 62 62 61 60 60 59 59 57 57 56 54 53 52 51 50 47
23 22 27 35 27 30 38 34 26 23 23 22 35 34 35 39 43 46 46 48 50 52 55 56 56 57 59 61 62 61 60 60 59 60 59 59 57 57 55 54 53 51 50 44
21 15 23 29 27 25 36 34 29 25 25 27 32 30 35 39 40 47 48 48 51 53 55 56 58 59 59 61 61 61 61 60 60 60 58 58 58 59 58 55 54 52 51 51
22 20 26 28 27 33 30 32 36 32 28 28 26 32 40 39 37 41 46 47 47 48 52 53 56 58 61 60 61 61 61 60 59 59 59 58 58 56 55 54 55 54 50 45
23 22 23 25 30 32 35 37 30 31 22 23 26 25 27 33 36 41 45 45 44 43 44 48 49 52 57 59 60 60 59 58 59 60 59 57 56 56 55 53 49 45 44 42
24 23 18 21 21 21 23 21 32 32 32 24 25 24 30 32 37 42 44 44 43 41 39 42 45 46 52 53 54 55 54 53 51 49 51 49 48 43 42 40 38 37 37 36
25 22 21 18 21 24 24 20 30 28 26 30 29 29 31 33 36 40 38 40 41 40 37 37 37 37 41 39 41 39 38 37 36 36 35 35 35 35 34 33 33 33 33 33
23 20 13 4 14 19 21 23 23 31 29 25 19 17 28 32 34 36 36 35 35 35 34 34 32 32 33 34 33 33 33 33 33 33 32 31 31 30 30 29 29 29 29 29
29 23 14 6 8 19 19 21 24 24 17 14 20 20 24 29 32 34 34 33 32 32 32 32 31 31 31 31 31 31 30 31 30 29 28 28 27 27 27 26 26 26 26 26
16 13 21 22 22 22 22 22 24 21 18 15 15 19 27 29 32 34 33 32 31 31 31 30 30 30 30 30 29 29 29 29 28 28 28 28 29 29 29 29 29 29 29 29
14 1 20 18 23 24 24 25 26 22 13 18 22 22 28 31 33 33 32 31 30 30 30 29 29 29 29 29 29 29 29 29 29 29 30 30 30 30 30 30 30 30 30 30
12 15 22 16 21 24 19 20 19 15 22 18 20 22 29 29 30 32 32 31 30 30 29 28 28 28 29 29 29 28 28 29 29 29 29 30 30 30 30 31 31 31 31 31
14 21 23 20 22 19 21 24 21 16 23 26 25 26 29 30 30 29 31 31 30 29 29 29 28 28 28 29 29 29 28 28 28 28 29 29 30 31 31 31 31 31 31 31
17 21 20 21 22 21 24 21 19 17 15 27 25 26 27 29 29 29 30 32 31 29 29 29 28 28 27 28 28 27 28 29 29 29 29 30 30 31 31 31 30 31 31 30
22 24 22 24 21 18 20 21 19 18 14 23 27 27 27 28 24 25 31 32 30 29 29 29 27 26 26 26 28 29 29 29 29 30 30 30 31 31 31 30 30 30 30 31
19 21 17 19 22 23 25 25 18 9 17 24 27 27 28 27 28 27 31 30 30 29 28 27 26 26 26 29 29 29 30 30 31 31 31 31 30 30 30 29 29 29 28 26
23 23 22 22 22 20 28 22 10 17 24 26 28 27 28 28 30 30 30 30 29 29 29 27 27 27 29 30 30 30 30 31 31 30 30 29 28 27 26 25 25 25 24 25
23 25 25 25 25 27 29 24 25 27 24 26 27 29 30 30 30 31 30 29 29 28 27 28 27 29 30 30 31 31 31 30 29 29 29 29 28 25 25 24 24 25 26 27
25 28 27 27 27 28 30 31 30 29 27 27 29 31 31 29 30 30 30 29 28 28 28 29 30 30 31 32 32 31 29 29 29 29 29 27 26 25 24 25 26 27 27 27
26 26 25 25 25 27 28 29 29 28 30 28 31 32 31 30 31 30 30 29 28 28 29 30 30 32 32 32 31 30 30 29 29 29 28 24 24 23 24 25 25 28 28 29
22 20 20 19 20 20 20 24 30 29 29 29 31 32 32 32 32 31 30 29 29 28 29 30 32 33 31 31 31 30 30 30 29 28 26 27 24 24 24 25 26 30 31 31